Mount Airy, NC

1:26 AM EST on December 06, 2019 (GMT -0500)
Mount Airy-Surry County

Weather History for KMWK - October, 2019

Change the Weather History Date:

Tuesday, October 15, 2019

  Actual Average (KINT) Record (KINT)
Temperature  
Mean Temperature 58 °F -  
Max Temperature 73 °F 68 °F 88 °F (1989)
Min Temperature 43 °F 48 °F 27 °F (1988)
Degree Days  
Heating Degree Days 7    
Growing Degree Days 8 (Base 50)    
Moisture  
Dew Point 45 °F    
Average Humidity 64    
Maximum Humidity 91    
Minimum Humidity 28    
Precipitation  
Precipitation 0.00 in - - ()
Sea Level Pressure  
Sea Level Pressure 30.12 in    
Wind  
Wind Speed 2 mph ()    
Max Wind Speed 10 mph    
Max Gust Speed -    
Visibility 10.0 miles    
Events      
Averages and records for this station are not official NWS values.
T = Trace of Precipitation, MM = Missing Value Source: Averaged Metar Reports

Daily Weather History Graph

Daily Weather History Graph

Search for Another Location

Airport or City:

Astronomy

Oct. 15, 2019 Rise Set
Actual Time 7:29 AM EDT 6:46 PM EDT
Civil Twilight 7:03 AM EDT 7:12 PM EDT
Nautical Twilight 6:33 AM EDT 7:42 PM EDT
Astronomical Twilight 6:03 AM EDT 8:11 PM EDT
Moon 8:07 PM EDT (10/15) 8:56 AM EDT (10/15)
Length of Visible Light 12h 08m
Length of Day
11h 17m
Full, 97% of the Moon is Illuminated
Oct 15
Full
Oct 21
Last Quarter
Oct 27
New
Nov 4
First Quarter
Nov 12
Full

Hourly Weather History & Observations

Time (EDT) Temp. Dew Point Humidity Pressure Visibility Wind Dir Wind Speed Gust Speed Precip Events Conditions
12:15 AM 53.8 °F 43.5 °F 68% 30.14 in 10.0 mi Calm Calm - N/A   Clear
12:35 AM 50.7 °F 45.0 °F 81% 30.14 in 10.0 mi NNE 3.5 mph - N/A   Clear
12:55 AM 51.4 °F 44.6 °F 77% 30.14 in 10.0 mi North 4.6 mph - N/A   Clear
1:15 AM 51.4 °F 44.1 °F 76% 30.14 in 10.0 mi NW 3.5 mph - N/A   Clear
1:35 AM 48.4 °F 43.7 °F 84% 30.14 in 10.0 mi Calm Calm - N/A   Clear
1:55 AM 52.9 °F 43.5 °F 71% 30.14 in 10.0 mi North 3.5 mph - N/A   Clear
2:15 AM 49.8 °F 43.7 °F 79% 30.14 in 10.0 mi Calm Calm - N/A   Clear
2:35 AM 50.4 °F 44.1 °F 79% 30.14 in 10.0 mi Calm Calm - N/A   Clear
2:55 AM 48.6 °F 43.2 °F 82% 30.14 in 10.0 mi Calm Calm - N/A   Clear
3:15 AM 48.2 °F 43.3 °F 83% 30.14 in 10.0 mi Calm Calm - N/A   Clear
4:15 AM 46.8 °F 42.8 °F 86% 30.14 in 10.0 mi Calm Calm - N/A   Clear
4:35 AM 47.3 °F 42.8 °F 84% 30.14 in 10.0 mi North 3.5 mph - N/A   Clear
4:55 AM 47.1 °F 42.6 °F 84% 30.14 in 10.0 mi Calm Calm - N/A   Clear
5:15 AM 48.4 °F 42.8 °F 81% 30.15 in 10.0 mi Calm Calm - N/A   Clear
5:35 AM 45.5 °F 41.7 °F 87% 30.15 in 10.0 mi Calm Calm - N/A   Clear
5:55 AM 44.4 °F 41.5 °F 90% 30.16 in 10.0 mi Calm Calm - N/A   Clear
6:15 AM 45.0 °F 42.1 °F 90% 30.17 in 10.0 mi Calm Calm - N/A   Clear
6:35 AM 45.0 °F 41.9 °F 89% 30.17 in 10.0 mi Calm Calm - N/A   Clear
6:55 AM 44.6 °F 41.4 °F 88% 30.18 in 10.0 mi Calm Calm - N/A   Clear
7:15 AM 44.1 °F 41.4 °F 90% 30.18 in 10.0 mi Calm Calm - N/A   Clear
7:35 AM 43.9 °F 41.2 °F 90% 30.19 in 10.0 mi Calm Calm - N/A   Clear
7:55 AM 43.9 °F 41.4 °F 91% 30.19 in 10.0 mi Calm Calm - N/A   Clear
8:15 AM 46.9 °F 43.5 °F 88% 30.19 in 10.0 mi Calm Calm - N/A   Clear
8:35 AM 50.2 °F 45.5 °F 84% 30.19 in 10.0 mi Calm Calm - N/A   Clear
8:55 AM 52.2 °F 45.9 °F 79% 30.19 in 10.0 mi Calm Calm - N/A   Clear
9:15 AM 54.7 °F 46.6 °F 74% 30.20 in 10.0 mi Calm Calm - N/A   Clear
9:35 AM 57.4 °F 47.8 °F 70% 30.20 in 10.0 mi Calm Calm - N/A   Clear
9:55 AM 59.9 °F 47.1 °F 63% 30.20 in 10.0 mi Calm Calm - N/A   Clear
10:15 AM 61.3 °F 46.9 °F 59% 30.20 in 10.0 mi Calm Calm - N/A   Clear
10:35 AM 64.0 °F 46.8 °F 53% 30.19 in 10.0 mi Calm Calm - N/A   Clear
10:55 AM 67.1 °F 41.9 °F 40% 30.19 in 10.0 mi East 4.6 mph - N/A   Clear
11:15 AM 68.2 °F 41.9 °F 38% 30.18 in 10.0 mi ESE 4.6 mph - N/A   Clear
11:35 AM 69.1 °F 41.2 °F 36% 30.18 in 10.0 mi ESE 6.9 mph - N/A   Clear
11:55 AM 70.3 °F 43.0 °F 37% 30.17 in 10.0 mi NE 4.6 mph - N/A   Clear
12:15 PM 70.7 °F 43.2 °F 37% 30.18 in 10.0 mi SE 4.6 mph - N/A   Clear
12:35 PM 72.1 °F 44.6 °F 37% 30.16 in 10.0 mi SE 5.8 mph - N/A   Clear
12:55 PM 72.0 °F 42.6 °F 35% 30.16 in 10.0 mi ESE 5.8 mph - N/A   Clear
1:15 PM 72.7 °F 43.3 °F 35% 30.15 in 10.0 mi East 10.4 mph - N/A   Clear
1:35 PM 73.0 °F 42.4 °F 33% 30.14 in 10.0 mi Calm Calm - N/A   Clear
1:55 PM 72.5 °F 37.8 °F 28% 30.12 in 10.0 mi South 5.8 mph - N/A   Clear
2:35 PM 72.1 °F 41.0 °F 32% 30.11 in 10.0 mi SE 4.6 mph - N/A   Clear
2:55 PM 72.1 °F 41.9 °F 34% 30.11 in 10.0 mi South 3.5 mph - N/A   Clear
3:15 PM 71.8 °F 42.1 °F 34% 30.10 in 10.0 mi SSW 3.5 mph - N/A   Scattered Clouds
3:35 PM 72.0 °F 43.9 °F 36% 30.09 in 10.0 mi SE 3.5 mph - N/A   Scattered Clouds
3:55 PM 71.2 °F 44.2 °F 38% 30.09 in 10.0 mi SE 4.6 mph - N/A   Clear
4:15 PM 71.4 °F 44.1 °F 37% 30.08 in 10.0 mi SSE 4.6 mph - N/A   Clear
4:35 PM 72.5 °F 45.0 °F 37% 30.08 in 10.0 mi SSE 4.6 mph - N/A   Clear
4:55 PM 71.8 °F 44.4 °F 37% 30.07 in 10.0 mi Calm Calm - N/A   Clear
5:15 PM 71.6 °F 44.8 °F 38% 30.07 in 10.0 mi SE 3.5 mph - N/A   Clear
5:35 PM 71.6 °F 44.8 °F 38% 30.06 in 10.0 mi SE 3.5 mph - N/A   Clear
5:55 PM 70.9 °F 46.9 °F 42% 30.07 in 10.0 mi SE 3.5 mph - N/A   Clear
6:15 PM 69.8 °F 48.2 °F 46% 30.06 in 10.0 mi SE 3.5 mph - N/A   Clear
6:35 PM 68.5 °F 47.7 °F 47% 30.06 in 10.0 mi Calm Calm - N/A   Clear
6:55 PM 66.0 °F 50.7 °F 58% 30.05 in 10.0 mi Calm Calm - N/A   Clear
7:15 PM 64.2 °F 51.6 °F 64% 30.05 in 10.0 mi Calm Calm - N/A   Clear
7:35 PM 62.2 °F 52.7 °F 71% 30.05 in 10.0 mi Calm Calm - N/A   Clear
7:55 PM 61.0 °F 52.0 °F 72% 30.05 in 10.0 mi Calm Calm - N/A   Clear
8:15 PM 60.1 °F 51.8 °F 74% 30.05 in 10.0 mi Calm Calm - N/A   Clear
8:35 PM 61.2 °F 49.5 °F 65% 30.04 in 10.0 mi Calm Calm - N/A   Clear
8:55 PM 59.9 °F 50.5 °F 71% 30.05 in 10.0 mi Calm Calm - N/A   Clear
9:15 PM 58.1 °F 51.4 °F 78% 30.04 in 10.0 mi Calm Calm - N/A   Clear
9:35 PM 58.5 °F 51.8 °F 79% 30.04 in 10.0 mi Calm Calm - N/A   Clear
9:55 PM 59.9 °F 50.5 °F 71% 30.04 in 10.0 mi Calm Calm - N/A   Clear
10:15 PM 61.5 °F 50.0 °F 66% 30.04 in 10.0 mi Calm Calm - N/A   Clear
10:35 PM 61.3 °F 50.0 °F 66% 30.04 in 10.0 mi Calm Calm - N/A   Clear
10:55 PM 59.9 °F 51.4 °F 74% 30.04 in 10.0 mi Calm Calm - N/A   Clear
11:15 PM 59.7 °F 50.0 °F 70% 30.03 in 10.0 mi Calm Calm - N/A   Clear
11:35 PM 58.6 °F 51.6 °F 77% 30.03 in 10.0 mi Calm Calm - N/A   Clear
11:55 PM 59.2 °F 52.0 °F 77% 30.02 in 10.0 mi Calm Calm - N/A   Clear